Lid_Strength_Index
2 2 2 2 2 3 3 3 3 3 3 3 3 3 3 3 3 6 7 2 3 -2 0 7 9 9 9 10 11 10 13 13 12 11 9 7 9 6 5 6 5 4 5 4 2
3 2 2 2 3 2 3 3 4 4 3 3 3 3 3 3 7 9 2 -3 -3 -2 7 9 11 10 11 12 12 12 14 12 8 8 9 7 8 7 7 7 7 6 4 3 3
3 3 3 2 3 3 3 3 4 4 3 4 3 3 3 4 9 8 -2 -2 -3 -1 7 7 9 11 13 13 13 14 14 12 10 8 6 8 8 6 7 9 7 7 6 4 4
3 3 3 3 3 3 3 3 4 4 4 4 4 3 3 7 11 7 -3 -2 -2 5 8 8 11 14 14 14 13 15 12 12 12 9 8 8 7 7 7 7 5 4 4 4 4
3 4 4 3 3 3 3 4 4 4 4 4 4 3 6 14 12 2 -2 -0 6 7 7 9 12 14 14 14 13 14 13 12 12 12 11 10 7 7 7 5 4 4 4 5 4
3 3 4 4 3 3 3 3 4 4 4 4 4 3 11 15 8 3 5 7 8 8 9 8 8 11 13 14 14 13 13 12 13 12 12 10 8 7 6 5 5 5 5 4 4
4 3 3 4 4 3 3 3 3 4 4 4 4 4 11 12 8 8 9 9 8 7 8 7 7 9 11 12 12 11 12 13 13 13 9 7 9 8 6 5 6 5 5 5 4
4 4 4 3 3 3 3 3 3 3 3 3 3 7 11 9 8 7 10 9 9 8 8 6 7 10 12 11 11 13 14 15 13 12 11 9 11 8 6 6 6 5 5 5 4
4 4 4 4 3 3 3 4 3 2 2 2 7 11 12 5 7 7 9 9 9 9 7 5 9 12 11 14 15 15 16 16 14 12 12 12 12 7 6 6 7 6 5 5 4
4 4 4 4 4 4 4 4 3 2 2 2 5 12 9 9 7 6 8 8 9 10 10 10 12 13 14 14 17 17 17 16 15 14 13 15 12 11 6 6 6 6 6 5 5
4 5 5 4 4 4 6 8 9 9 8 10 11 10 9 7 6 7 8 9 10 11 14 13 14 15 14 14 14 15 15 15 14 12 13 14 13 12 8 7 7 7 6 5 5
5 5 5 5 4 4 7 8 8 8 11 8 9 9 8 8 9 8 8 11 12 14 13 14 15 13 12 13 13 14 15 15 13 12 13 13 12 11 8 7 7 6 6 5 5
5 5 5 5 5 7 8 7 6 9 13 10 9 11 11 9 10 8 9 11 13 14 15 16 14 12 12 13 13 15 15 15 14 13 13 14 14 11 9 7 6 6 5 5 5
5 5 5 5 7 9 9 7 7 8 14 11 10 10 10 9 10 7 8 10 12 13 13 13 12 12 14 13 13 16 12 13 14 15 17 14 18 14 11 8 8 7 6 6 6
5 5 5 5 10 9 7 7 7 9 18 11 10 8 8 10 10 9 7 8 11 11 12 12 11 11 13 12 11 13 10 12 13 16 18 16 17 15 11 10 9 7 7 7 6
6 5 6 7 10 9 8 8 9 15 18 12 10 11 11 10 10 9 9 8 9 11 12 11 10 11 10 10 10 9 10 11 15 16 19 16 16 17 13 11 10 9 8 7 6
6 6 7 7 8 8 8 10 15 18 11 13 12 11 12 12 11 11 11 11 13 15 15 12 12 10 10 12 11 12 14 17 17 17 19 15 16 15 12 10 9 9 8 6 6
6 7 7 6 7 8 10 13 17 13 13 11 11 12 13 12 12 12 12 13 10 12 15 16 15 12 9 11 13 14 14 16 19 18 17 14 16 15 10 8 8 7 7 6 6
7 8 7 7 7 9 11 16 16 14 11 12 13 14 14 12 12 13 14 13 11 12 14 15 13 9 8 9 11 14 15 13 16 17 17 16 14 11 9 9 8 8 7 7 6
9 9 8 6 8 10 13 15 14 11 10 11 15 14 15 14 14 14 14 12 12 11 11 11 16 10 8 8 10 12 11 15 16 19 19 17 15 16 13 11 9 9 8 7 6
9 10 7 6 8 11 15 15 12 9 10 12 13 14 14 14 14 14 14 12 10 10 11 11 13 13 10 11 12 12 14 14 14 15 18 19 16 11 12 10 10 9 8 7 6
11 13 7 8 13 15 15 13 10 10 10 11 12 12 13 13 14 14 13 11 8 9 11 10 12 16 13 9 8 9 11 13 16 16 16 16 14 10 10 9 8 8 7 6 6
12 12 7 9 15 15 13 11 10 11 11 11 12 11 12 14 15 13 12 9 8 9 11 10 14 17 16 13 10 11 10 12 14 15 15 15 15 9 9 9 8 8 7 7 6
11 13 11 11 13 14 14 14 13 9 11 10 11 11 12 13 13 14 12 9 8 8 5 8 12 14 16 15 11 12 10 10 12 15 15 14 13 12 11 10 9 8 7 6 6
12 13 13 15 14 14 15 13 13 13 11 11 12 12 13 15 14 13 11 10 8 7 8 9 14 12 11 10 10 11 11 11 12 11 14 12 12 11 10 9 8 7 7 7 6
13 13 12 14 14 14 14 15 13 12 12 12 13 11 12 14 13 13 11 11 11 9 10 9 14 12 13 11 11 12 11 11 11 10 11 11 11 8 8 8 8 8 7 7 7
11 11 12 14 14 16 15 13 12 11 11 10 11 12 12 11 10 9 9 9 8 10 10 11 13 14 16 12 12 15 12 11 10 9 10 12 9 9 10 9 9 8 7 7 6